| time (UTC) | temp F | wind direction | speed MPH | gust MPH | rain 1hr in | rain 24hr in | rain mn in | humidity % | barometer mb |
| 20260831182713 | 71 | 237 | 1.0 | 5.0 | 0.00 | 0.20 | 0.00 | 59 | 1016.5 |
| 20260831181813 | 71 | 196 | 1.0 | 5.0 | 0.00 | 0.20 | 0.00 | 61 | 1016.5 |
| 20260831180934 | 70 | 196 | 1.0 | 5.0 | 0.00 | 0.20 | 0.00 | 61 | 1016.5 |
| 20260831180013 | 70 | 196 | 0.0 | 3.0 | 0.00 | 0.20 | 0.00 | 61 | 1016.5 |
| 20260831175412 | 70 | 196 | 0.0 | 3.0 | 0.00 | 0.20 | 0.00 | 61 | 1016.5 |
| 20260831174513 | 69 | 196 | 0.0 | 3.0 | 0.00 | 0.20 | 0.00 | 61 | 1016.5 |
| 20260831173613 | 69 | 196 | 0.0 | 5.0 | 0.00 | 0.20 | 0.00 | 62 | 1016.5 |
| 20260831172712 | 68 | 197 | 0.0 | 1.0 | 0.00 | 0.20 | 0.00 | 63 | 1016.5 |
| 20260831171812 | 68 | 197 | 0.0 | 1.0 | 0.00 | 0.20 | 0.00 | 62 | 1016.5 |
| 20260831170913 | 67 | 197 | 0.0 | 6.0 | 0.00 | 0.20 | 0.00 | 64 | 1016.5 |
| 20260831170013 | 67 | 197 | 2.0 | 6.0 | 0.00 | 0.20 | 0.00 | 64 | 1016.5 |
| 20260831165413 | 66 | 197 | 1.0 | 6.0 | 0.00 | 0.20 | 0.00 | 66 | 1016.5 |
| 20260831164512 | 66 | 197 | 0.0 | 4.0 | 0.00 | 0.20 | 0.00 | 67 | 1016.5 |
| 20260831163613 | 65 | 197 | 0.0 | 3.0 | 0.00 | 0.20 | 0.00 | 70 | 1016.5 |
| 20260831162713 | 65 | 197 | 1.0 | 5.0 | 0.00 | 0.20 | 0.00 | 70 | 1016.5 |
| 20260831161813 | 65 | 197 | 2.0 | 6.0 | 0.00 | 0.20 | 0.00 | 69 | 1016.5 |
| 20260831160934 | 64 | 197 | 2.0 | 6.0 | 0.00 | 0.20 | 0.00 | 71 | 1016.5 |
| 20260831160013 | 64 | 197 | 2.0 | 6.0 | 0.00 | 0.20 | 0.00 | 71 | 1016.5 |
| 20260831155413 | 64 | 197 | 1.0 | 6.0 | 0.00 | 0.20 | 0.00 | 70 | 1016.5 |
| 20260831154513 | 64 | 196 | 0.0 | 3.0 | 0.00 | 0.20 | 0.00 | 72 | 1016.5 |
| 20260831153613 | 64 | 197 | 0.0 | 4.0 | 0.00 | 0.20 | 0.00 | 75 | 1016.5 |
| 20260831152713 | 64 | 197 | 0.0 | 2.0 | 0.00 | 0.20 | 0.00 | 74 | 1016.5 |
| 20260831151812 | 63 | 211 | 0.0 | 5.0 | 0.00 | 0.20 | 0.00 | 75 | 1016.5 |
| 20260831150913 | 63 | 207 | 0.0 | 5.0 | 0.00 | 0.20 | 0.00 | 75 | 1016.5 |
| 20260831150013 | 63 | 132 | 0.0 | 4.0 | 0.00 | 0.20 | 0.00 | 75 | 1016.5 |
| 20260831145413 | 62 | 154 | 0.0 | 3.0 | 0.00 | 0.20 | 0.00 | 75 | 1016.5 |
| 20260831144513 | 62 | 0 | 0.0 | 0.0 | 0.00 | 0.20 | 0.00 | 76 | 1016.5 |
| 20260831143613 | 62 | 0 | 0.0 | 0.0 | 0.00 | 0.20 | 0.00 | 75 | 1016.5 |
| 20260831142713 | 62 | 0 | 0.0 | 0.0 | 0.00 | 0.20 | 0.00 | 76 | 1016.5 |
| 20260831141813 | 62 | 0 | 0.0 | 1.0 | 0.00 | 0.20 | 0.00 | 76 | 1016.5 |
| 20260831140913 | 62 | 0 | 0.0 | 0.0 | 0.00 | 0.20 | 0.00 | 76 | 1016.5 |
| 20260831140013 | 62 | 197 | 0.0 | 5.0 | 0.00 | 0.20 | 0.00 | 75 | 1016.5 |
| 20260831135413 | 62 | 198 | 0.0 | 5.0 | 0.00 | 0.20 | 0.00 | 75 | 1016.5 |
| 20260831134513 | 61 | 205 | 0.0 | 3.0 | 0.00 | 0.20 | 0.00 | 75 | 1016.5 |
| 20260831133613 | 61 | 0 | 0.0 | 0.0 | 0.00 | 0.20 | 0.00 | 77 | 1016.5 |
| 20260831132713 | 60 | 205 | 1.0 | 6.0 | 0.00 | 0.20 | 0.00 | 79 | 1016.5 |
| 20260831131813 | 58 | 205 | 0.0 | 4.0 | 0.00 | 0.20 | 0.00 | 84 | 1016.5 |
| 20260831130913 | 58 | 0 | 0.0 | 0.0 | 0.00 | 0.20 | 0.00 | 85 | 1016.5 |
| 20260831130013 | 58 | 0 | 0.0 | 0.0 | 0.00 | 0.20 | 0.00 | 84 | 1016.5 |
| 20260831125434 | 58 | 0 | 0.0 | 0.0 | 0.00 | 0.20 | 0.00 | 84 | 1016.5 |
| 20260831124513 | 59 | 0 | 0.0 | 0.0 | 0.00 | 0.20 | 0.00 | 84 | 1016.5 |
| 20260831123613 | 59 | 0 | 0.0 | 0.0 | 0.00 | 0.20 | 0.00 | 82 | 1016.5 |
| 20260831122713 | 60 | 0 | 0.0 | 0.0 | 0.00 | 0.20 | 0.00 | 81 | 1016.5 |
| 20260831121813 | 60 | 0 | 0.0 | 0.0 | 0.00 | 0.20 | 0.00 | 80 | 1016.5 |
| 20260831120913 | 60 | 0 | 0.0 | 0.0 | 0.00 | 0.20 | 0.00 | 79 | 1016.5 |
| 20260831120013 | 61 | 0 | 0.0 | 0.0 | 0.00 | 0.20 | 0.00 | 78 | 1016.5 |
| 20260831115413 | 61 | 0 | 0.0 | 0.0 | 0.00 | 0.20 | 0.00 | 76 | 1016.5 |
| 20260831114513 | 62 | 0 | 0.0 | 0.0 | 0.00 | 0.20 | 0.00 | 75 | 1016.5 |
| 20260831113613 | 62 | 0 | 0.0 | 0.0 | 0.00 | 0.20 | 0.00 | 74 | 1016.5 |
| 20260831112713 | 62 | 0 | 0.0 | 0.0 | 0.00 | 0.20 | 0.00 | 74 | 1016.5 |
| 20260831111812 | 62 | 0 | 0.0 | 0.0 | 0.00 | 0.21 | 0.00 | 73 | 1016.5 |
| 20260831110913 | 62 | 0 | 0.0 | 0.0 | 0.00 | 0.22 | 0.00 | 73 | 1016.5 |
| 20260831110013 | 62 | 0 | 0.0 | 0.0 | 0.00 | 0.22 | 0.00 | 73 | 1016.5 |
| 20260831105413 | 62 | 205 | 0.0 | 1.0 | 0.00 | 0.22 | 0.00 | 73 | 1016.5 |
| 20260831104513 | 62 | 205 | 1.0 | 7.0 | 0.00 | 0.25 | 0.00 | 72 | 1016.5 |
| 20260831103613 | 62 | 205 | 0.0 | 5.0 | 0.00 | 0.25 | 0.00 | 72 | 1016.5 |
| 20260831102713 | 63 | 205 | 0.0 | 6.0 | 0.00 | 0.25 | 0.00 | 72 | 1016.5 |
| 20260831101813 | 62 | 205 | 0.0 | 5.0 | 0.00 | 0.25 | 0.00 | 72 | 1016.5 |
| 20260831100913 | 62 | 208 | 1.0 | 7.0 | 0.00 | 0.25 | 0.00 | 72 | 1016.5 |
| 20260831100012 | 62 | 205 | 0.0 | 6.0 | 0.00 | 0.25 | 0.00 | 72 | 1016.5 |
| 20260831095433 | 62 | 194 | 1.0 | 6.0 | 0.00 | 0.25 | 0.00 | 72 | 1016.5 |
| 20260831094513 | 62 | 188 | 0.0 | 6.0 | 0.00 | 0.25 | 0.00 | 72 | 1016.5 |
| 20260831093613 | 62 | 188 | 0.0 | 6.0 | 0.00 | 0.25 | 0.00 | 72 | 1016.5 |
| 20260831092713 | 62 | 189 | 0.0 | 6.0 | 0.00 | 0.25 | 0.00 | 72 | 1016.5 |
| 20260831091834 | 62 | 187 | 1.0 | 9.0 | 0.00 | 0.25 | 0.00 | 72 | 1016.5 |
| 20260831090912 | 62 | 185 | 1.0 | 8.0 | 0.00 | 0.25 | 0.00 | 71 | 1016.5 |
| 20260831090013 | 62 | 192 | 1.0 | 7.0 | 0.00 | 0.25 | 0.00 | 71 | 1016.5 |
| 20260831085413 | 62 | 186 | 1.0 | 7.0 | 0.00 | 0.25 | 0.00 | 72 | 1016.5 |
| 20260831084513 | 62 | 180 | 2.0 | 9.0 | 0.00 | 0.25 | 0.00 | 72 | 1016.5 |
| 20260831083613 | 62 | 187 | 4.0 | 13.0 | 0.00 | 0.25 | 0.00 | 73 | 1016.5 |
| 20260831082713 | 62 | 188 | 5.0 | 13.0 | 0.00 | 0.25 | 0.00 | 74 | 1016.5 |
| 20260831081834 | 62 | 194 | 3.0 | 12.0 | 0.00 | 0.25 | 0.00 | 76 | 1016.5 |
| 20260831080913 | 62 | 189 | 3.0 | 8.0 | 0.00 | 0.25 | 0.00 | 76 | 1016.5 |
| 20260831080013 | 61 | 197 | 1.0 | 8.0 | 0.00 | 0.25 | 0.00 | 77 | 1016.5 |
| 20260831075413 | 61 | 201 | 1.0 | 6.0 | 0.00 | 0.25 | 0.00 | 77 | 1016.5 |
| 20260831074512 | 62 | 205 | 1.0 | 7.0 | 0.00 | 0.25 | 0.00 | 76 | 1016.5 |
| 20260831073613 | 62 | 190 | 0.0 | 2.0 | 0.00 | 0.25 | 0.00 | 75 | 1016.5 |
| 20260831072713 | 62 | 190 | 0.0 | 6.0 | 0.00 | 0.25 | 0.00 | 75 | 1016.5 |
| 20260831071813 | 62 | 190 | 1.0 | 6.0 | 0.00 | 0.25 | 0.00 | 75 | 1016.5 |
| 20260831070913 | 62 | 190 | 0.0 | 6.0 | 0.00 | 0.25 | 0.00 | 75 | 1016.5 |
| 20260831070013 | 62 | 0 | 0.0 | 0.0 | 0.00 | 0.25 | 0.00 | 74 | 1016.5 |
| 20260831065413 | 62 | 188 | 0.0 | 5.0 | 0.00 | 0.25 | 0.00 | 74 | 1016.5 |
| 20260831064513 | 62 | 195 | 2.0 | 8.0 | 0.00 | 0.25 | 0.00 | 73 | 1016.5 |
| 20260831063613 | 62 | 198 | 2.0 | 9.0 | 0.00 | 0.25 | 0.00 | 73 | 1016.5 |
| 20260831062713 | 62 | 197 | 2.0 | 7.0 | 0.00 | 0.25 | 0.00 | 74 | 1016.5 |
| 20260831061813 | 62 | 208 | 1.0 | 9.0 | 0.00 | 0.25 | 0.00 | 75 | 1016.5 |
| 20260831060934 | 62 | 203 | 0.0 | 7.0 | 0.00 | 0.25 | 0.00 | 74 | 1016.5 |
| 20260831060013 | 62 | 181 | 2.0 | 8.0 | 0.00 | 0.25 | 0.00 | 75 | 1016.5 |
| 20260831055413 | 62 | 187 | 3.0 | 10.0 | 0.00 | 0.25 | 0.25 | 76 | 1016.5 |
| 20260831054534 | 62 | 184 | 0.0 | 8.0 | 0.00 | 0.25 | 0.25 | 75 | 1016.5 |
| 20260831053612 | 62 | 181 | 0.0 | 3.0 | 0.00 | 0.25 | 0.25 | 75 | 1016.5 |
| 20260831052713 | 62 | 0 | 0.0 | 0.0 | 0.00 | 0.25 | 0.25 | 78 | 1016.5 |
| 20260831051813 | 62 | 0 | 0.0 | 0.0 | 0.00 | 0.25 | 0.25 | 76 | 1016.5 |
| 20260831050913 | 62 | 180 | 0.0 | 1.0 | 0.00 | 0.25 | 0.25 | 76 | 1016.5 |
| 20260831050034 | 62 | 180 | 0.0 | 1.0 | 0.00 | 0.25 | 0.25 | 76 | 1016.5 |
| 20260831045413 | 62 | 0 | 0.0 | 0.0 | 0.00 | 0.25 | 0.25 | 76 | 1016.5 |
| 20260831044513 | 62 | 0 | 0.0 | 0.0 | 0.00 | 0.25 | 0.25 | 76 | 1016.5 |
| 20260831043634 | 63 | 0 | 0.0 | 1.0 | 0.00 | 0.25 | 0.25 | 74 | 1016.5 |
| 20260831042713 | 64 | 0 | 0.0 | 0.0 | 0.00 | 0.25 | 0.25 | 70 | 1016.5 |
| 20260831041813 | 65 | 0 | 0.0 | 0.0 | 0.00 | 0.25 | 0.25 | 67 | 1016.5 |
| 20260831040913 | 64 | 183 | 1.0 | 7.0 | 0.00 | 0.25 | 0.25 | 67 | 1016.5 |
| 20260831040013 | 64 | 190 | 1.0 | 7.0 | 0.00 | 0.25 | 0.25 | 68 | 1016.5 |
| 20260831035413 | 64 | 190 | 1.0 | 7.0 | 0.00 | 0.25 | 0.25 | 68 | 1016.5 |
| 20260831034513 | 64 | 190 | 1.0 | 6.0 | 0.00 | 0.25 | 0.25 | 70 | 1016.5 |
| 20260831033613 | 63 | 191 | 2.0 | 8.0 | 0.00 | 0.25 | 0.25 | 71 | 1016.5 |
| 20260831032713 | 63 | 193 | 3.0 | 13.0 | 0.00 | 0.25 | 0.25 | 75 | 1016.5 |
| 20260831031813 | 62 | 203 | 4.0 | 13.0 | 0.00 | 0.25 | 0.25 | 78 | 1016.5 |
| 20260831030913 | 62 | 209 | 1.0 | 7.0 | 0.00 | 0.25 | 0.25 | 82 | 1016.5 |
| 20260831030013 | 61 | 212 | 1.0 | 6.0 | 0.00 | 0.25 | 0.25 | 82 | 1016.5 |
| 20260831025434 | 62 | 90 | 0.0 | 2.0 | 0.00 | 0.25 | 0.25 | 82 | 1016.5 |
| 20260831024513 | 62 | 0 | 0.0 | 0.0 | 0.00 | 0.25 | 0.25 | 82 | 1016.5 |
| 20260831023613 | 62 | 0 | 0.0 | 0.0 | 0.00 | 0.25 | 0.25 | 81 | 1016.5 |
| 20260831022713 | 63 | 215 | 0.0 | 5.0 | 0.00 | 0.25 | 0.25 | 79 | 1016.5 |
| 20260831021813 | 64 | 229 | 0.0 | 5.0 | 0.00 | 0.26 | 0.25 | 76 | 1016.5 |
| 20260831020934 | 64 | 234 | 1.0 | 7.0 | 0.00 | 0.26 | 0.25 | 74 | 1016.5 |
| 20260831020013 | 64 | 232 | 0.0 | 6.0 | 0.00 | 0.26 | 0.25 | 76 | 1016.5 |
| 20260831015413 | 63 | 230 | 2.0 | 11.0 | 0.00 | 0.26 | 0.25 | 76 | 1016.5 |
| 20260831014534 | 63 | 225 | 3.0 | 12.0 | 0.00 | 0.26 | 0.25 | 77 | 1016.5 |
| 20260831013613 | 62 | 240 | 1.0 | 10.0 | 0.01 | 0.26 | 0.25 | 78 | 1016.5 |
| 20260831012713 | 62 | 233 | 1.0 | 7.0 | 0.01 | 0.26 | 0.25 | 80 | 1016.5 |
| 20260831011834 | 61 | 235 | 1.0 | 9.0 | 0.02 | 0.26 | 0.25 | 81 | 1016.5 |
| 20260831010913 | 61 | 226 | 0.0 | 5.0 | 0.05 | 0.26 | 0.25 | 83 | 1016.5 |
| 20260831010013 | 61 | 187 | 1.0 | 5.0 | 0.10 | 0.26 | 0.25 | 84 | 1016.5 |
| 20260831005413 | 61 | 181 | 0.0 | 5.0 | 0.13 | 0.26 | 0.25 | 84 | 1016.5 |
| 20260831004513 | 61 | 180 | 0.0 | 2.0 | 0.18 | 0.26 | 0.25 | 83 | 1016.5 |
| 20260831003613 | 61 | 278 | 0.0 | 1.0 | 0.19 | 0.25 | 0.24 | 83 | 1016.5 |
| 20260831002713 | 61 | 9 | 0.0 | 3.0 | 0.19 | 0.25 | 0.24 | 81 | 1016.5 |
| 20260831001813 | 62 | 291 | 1.0 | 12.0 | 0.18 | 0.24 | 0.23 | 79 | 1016.5 |
| 20260831000913 | 63 | 261 | 5.0 | 21.0 | 0.15 | 0.21 | 0.20 | 76 | 1016.5 |
| 20260831000013 | 66 | 293 | 9.0 | 25.0 | 0.10 | 0.16 | 0.15 | 68 | 1016.5 |
| 20260830235413 | 71 | 301 | 4.0 | 23.0 | 0.07 | 0.13 | 0.13 | 59 | 1016.5 |
| 20260830234513 | 75 | 0 | 0.0 | 0.0 | 0.02 | 0.08 | 0.07 | 60 | 1016.5 |
| 20260830233613 | 76 | 0 | 0.0 | 0.0 | 0.00 | 0.06 | 0.05 | 47 | 1016.5 |
| 20260830232713 | 76 | 0 | 0.0 | 0.0 | 0.00 | 0.06 | 0.05 | 44 | 1016.5 |
| 20260830231813 | 76 | 196 | 1.0 | 6.0 | 0.00 | 0.06 | 0.05 | 43 | 1016.5 |
| 20260830230913 | 76 | 197 | 5.0 | 9.0 | 0.00 | 0.06 | 0.05 | 42 | 1016.5 |
| 20260830230013 | 77 | 199 | 3.0 | 8.0 | 0.00 | 0.06 | 0.05 | 43 | 1016.5 |
| 20260830225413 | 77 | 200 | 3.0 | 8.0 | 0.00 | 0.06 | 0.05 | 42 | 1016.5 |
| 20260830224513 | 78 | 194 | 1.0 | 7.0 | 0.00 | 0.06 | 0.05 | 43 | 1016.5 |
| 20260830223613 | 78 | 192 | 3.0 | 9.0 | 0.00 | 0.06 | 0.05 | 43 | 1016.5 |
| 20260830222713 | 78 | 200 | 1.0 | 7.0 | 0.00 | 0.06 | 0.05 | 42 | 1016.5 |
| 20260830221813 | 78 | 199 | 3.0 | 8.0 | 0.00 | 0.06 | 0.05 | 41 | 1016.5 |
| 20260830220913 | 78 | 77 | 1.0 | 8.0 | 0.00 | 0.06 | 0.05 | 41 | 1016.5 |
| 20260830220013 | 78 | 68 | 3.0 | 9.0 | 0.00 | 0.06 | 0.05 | 40 | 1016.5 |
| 20260830215413 | 78 | 184 | 1.0 | 7.0 | 0.00 | 0.06 | 0.05 | 42 | 1016.5 |
| 20260830214513 | 79 | 128 | 2.0 | 6.0 | 0.00 | 0.06 | 0.05 | 42 | 1016.5 |
| 20260830213613 | 78 | 55 | 2.0 | 11.0 | 0.00 | 0.06 | 0.05 | 44 | 1016.5 |
| 20260830212713 | 78 | 194 | 4.0 | 11.0 | 0.00 | 0.06 | 0.05 | 44 | 1016.5 |
| 20260830211813 | 78 | 103 | 2.0 | 12.0 | 0.00 | 0.06 | 0.05 | 43 | 1016.5 |
| 20260830210913 | 79 | 71 | 3.0 | 12.0 | 0.00 | 0.06 | 0.05 | 43 | 1016.5 |
| 20260830210013 | 80 | 56 | 3.0 | 13.0 | 0.00 | 0.06 | 0.05 | 42 | 1016.5 |
| 20260830205413 | 79 | 66 | 1.0 | 7.0 | 0.00 | 0.06 | 0.05 | 42 | 1016.5 |
| 20260830204513 | 78 | 62 | 4.0 | 12.0 | 0.00 | 0.06 | 0.05 | 41 | 1016.5 |
| 20260830203613 | 78 | 58 | 1.0 | 5.0 | 0.00 | 0.06 | 0.05 | 41 | 1016.5 |
| 20260830202713 | 78 | 57 | 1.0 | 7.0 | 0.00 | 0.06 | 0.05 | 41 | 1016.5 |
| 20260830201813 | 77 | 66 | 3.0 | 10.0 | 0.00 | 0.06 | 0.05 | 42 | 1016.5 |
| 20260830200913 | 77 | 114 | 2.0 | 9.0 | 0.00 | 0.06 | 0.05 | 44 | 1016.5 |
| 20260830200013 | 77 | 68 | 2.0 | 9.0 | 0.00 | 0.06 | 0.05 | 43 | 1016.5 |
| 20260830195413 | 76 | 70 | 2.0 | 9.0 | 0.00 | 0.06 | 0.05 | 43 | 1016.5 |
| 20260830194513 | 76 | 64 | 2.0 | 7.0 | 0.00 | 0.06 | 0.05 | 44 | 1016.5 |
| 20260830193613 | 75 | 75 | 3.0 | 9.0 | 0.00 | 0.06 | 0.05 | 45 | 1016.5 |
| 20260830192713 | 74 | 78 | 2.0 | 9.0 | 0.00 | 0.06 | 0.05 | 48 | 1016.5 |
| 20260830191813 | 74 | 75 | 1.0 | 7.0 | 0.00 | 0.06 | 0.05 | 48 | 1016.5 |
| 20260830190913 | 73 | 75 | 0.0 | 4.0 | 0.00 | 0.06 | 0.05 | 51 | 1016.5 |
| 20260830190013 | 72 | 0 | 0.0 | 2.0 | 0.00 | 0.06 | 0.05 | 53 | 1016.5 |
| 20260830185413 | 71 | 0 | 0.0 | 0.0 | 0.00 | 0.06 | 0.05 | 56 | 1016.5 |
| 20260830184513 | 71 | 0 | 0.0 | 0.0 | 0.00 | 0.06 | 0.05 | 60 | 1016.5 |
| 20260830183634 | 70 | 75 | 0.0 | 4.0 | 0.00 | 0.06 | 0.05 | 60 | 1016.5 |